QPF
0.03 0.03 0.04 0.09 0.08 0.07 0.05 0.06 0.06 0.05 0.04 0.05 0.05 0.04 0.06 0.09 0.10 0.12 0.08 0.08 0.09 0.09 0.09 0.10 0.10 0.08 0.11 0.11 0.11 0.12 0.11 0.10 0.11 0.09 0.09 0.07 0.07 0.08 0.09 0.10 0.09 0.07 0.08
0.01 0.03 0.04 0.05 0.06 0.07 0.07 0.06 0.06 0.05 0.05 0.06 0.06 0.05 0.06 0.10 0.13 0.13 0.11 0.09 0.09 0.08 0.09 0.09 0.07 0.09 0.13 0.15 0.13 0.12 0.12 0.12 0.13 0.12 0.12 0.09 0.08 0.10 0.11 0.12 0.09 0.07 0.07
0.01 0.02 0.04 0.06 0.07 0.07 0.06 0.05 0.05 0.04 0.05 0.07 0.08 0.07 0.09 0.13 0.12 0.15 0.14 0.11 0.09 0.09 0.09 0.09 0.07 0.09 0.10 0.12 0.14 0.16 0.13 0.13 0.12 0.10 0.11 0.09 0.08 0.11 0.11 0.14 0.10 0.07 0.07
0.02 0.04 0.06 0.08 0.08 0.07 0.05 0.03 0.03 0.04 0.04 0.06 0.07 0.10 0.11 0.14 0.12 0.14 0.17 0.13 0.12 0.12 0.12 0.11 0.09 0.11 0.10 0.13 0.24 0.24 0.11 0.12 0.10 0.10 0.10 0.08 0.09 0.11 0.13 0.15 0.10 0.08 0.10
0.02 0.04 0.06 0.07 0.06 0.05 0.04 0.03 0.04 0.04 0.05 0.06 0.07 0.10 0.11 0.12 0.14 0.12 0.12 0.15 0.21 0.27 0.22 0.17 0.15 0.14 0.12 0.14 0.25 0.35 0.32 0.22 0.11 0.08 0.09 0.08 0.13 0.14 0.13 0.13 0.10 0.11 0.12
0.02 0.04 0.05 0.04 0.05 0.04 0.04 0.05 0.06 0.06 0.05 0.05 0.07 0.08 0.09 0.11 0.11 0.11 0.12 0.13 0.15 0.18 0.19 0.18 0.16 0.15 0.14 0.12 0.16 0.28 0.34 0.21 0.11 0.08 0.08 0.10 0.13 0.15 0.16 0.16 0.13 0.13 0.12
0.01 0.03 0.05 0.05 0.05 0.05 0.05 0.05 0.05 0.05 0.06 0.08 0.09 0.09 0.08 0.10 0.10 0.10 0.09 0.09 0.10 0.13 0.15 0.14 0.12 0.12 0.10 0.08 0.08 0.10 0.10 0.09 0.08 0.08 0.08 0.10 0.11 0.16 0.17 0.15 0.16 0.14 0.14
0.01 0.02 0.03 0.06 0.06 0.05 0.06 0.06 0.05 0.05 0.08 0.10 0.11 0.13 0.11 0.10 0.10 0.10 0.10 0.07 0.07 0.09 0.10 0.10 0.10 0.11 0.11 0.10 0.10 0.11 0.08 0.07 0.08 0.08 0.07 0.08 0.10 0.13 0.14 0.13 0.13 0.13 0.14
0.00 0.01 0.02 0.03 0.06 0.07 0.08 0.08 0.07 0.06 0.09 0.10 0.10 0.12 0.11 0.12 0.10 0.08 0.06 0.06 0.08 0.11 0.11 0.08 0.09 0.09 0.09 0.10 0.12 0.12 0.08 0.07 0.08 0.10 0.11 0.12 0.14 0.15 0.15 0.14 0.15 0.16 0.16
0.00 0.00 0.01 0.02 0.03 0.04 0.05 0.07 0.08 0.08 0.07 0.07 0.06 0.07 0.12 0.16 0.08 0.05 0.04 0.05 0.08 0.10 0.10 0.08 0.09 0.08 0.09 0.09 0.08 0.07 0.06 0.08 0.10 0.08 0.11 0.13 0.15 0.16 0.16 0.13 0.12 0.11 0.11
0.01 0.01 0.01 0.01 0.01 0.01 0.02 0.04 0.05 0.06 0.05 0.07 0.05 0.09 0.17 0.19 0.13 0.05 0.04 0.05 0.07 0.08 0.08 0.08 0.08 0.09 0.10 0.07 0.05 0.04 0.04 0.04 0.05 0.07 0.11 0.14 0.14 0.13 0.13 0.11 0.11 0.08 0.07
0.00 0.01 0.02 0.02 0.01 0.01 0.01 0.02 0.04 0.03 0.03 0.05 0.05 0.09 0.15 0.16 0.16 0.09 0.04 0.04 0.05 0.06 0.07 0.08 0.07 0.06 0.06 0.05 0.03 0.02 0.02 0.02 0.03 0.04 0.08 0.11 0.12 0.11 0.11 0.10 0.08 0.06 0.05
0.00 0.00 0.01 0.01 0.01 0.01 0.01 0.01 0.02 0.02 0.01 0.01 0.01 0.06 0.10 0.10 0.10 0.09 0.08 0.06 0.05 0.05 0.05 0.05 0.05 0.05 0.04 0.03 0.02 0.02 0.02 0.01 0.02 0.04 0.06 0.07 0.08 0.10 0.11 0.10 0.06 0.04 0.04
0.00 0.00 0.00 0.00 0.00 0.00 0.00 0.00 0.01 0.01 0.00 0.00 0.01 0.05 0.08 0.09 0.08 0.05 0.05 0.04 0.04 0.03 0.02 0.02 0.04 0.05 0.03 0.01 0.02 0.02 0.02 0.01 0.02 0.03 0.05 0.05 0.06 0.09 0.10 0.09 0.08 0.07 0.06
0.00 0.00 0.00 0.00 0.00 0.00 0.00 0.00 0.00 0.01 0.00 0.00 0.02 0.06 0.08 0.07 0.06 0.05 0.04 0.04 0.03 0.03 0.02 0.03 0.04 0.04 0.02 0.01 0.01 0.01 0.01 0.02 0.01 0.02 0.03 0.03 0.04 0.08 0.11 0.12 0.09 0.06 0.05
0.00 0.00 0.00 0.00 0.00 0.00 0.00 0.00 0.00 0.01 0.01 0.01 0.02 0.05 0.06 0.05 0.04 0.04 0.04 0.04 0.03 0.03 0.04 0.05 0.03 0.02 0.01 0.01 0.01 0.00 0.01 0.01 0.01 0.01 0.01 0.02 0.02 0.04 0.07 0.08 0.08 0.07 0.04
0.00 0.00 0.01 0.00 0.00 0.00 0.00 0.00 0.00 0.01 0.01 0.01 0.02 0.03 0.03 0.03 0.03 0.03 0.04 0.04 0.03 0.03 0.04 0.05 0.02 0.01 0.01 0.01 0.01 0.00 0.00 0.00 0.00 0.00 0.01 0.01 0.01 0.02 0.03 0.05 0.05 0.08 0.05
0.00 0.00 0.00 0.00 0.00 0.00 0.00 0.00 0.00 0.01 0.01 0.01 0.01 0.02 0.02 0.02 0.03 0.03 0.03 0.03 0.02 0.02 0.03 0.04 0.02 0.01 0.01 0.01 0.01 0.00 0.00 0.00 0.00 0.00 0.00 0.01 0.01 0.01 0.01 0.03 0.04 0.06 0.05
0.00 0.00 0.00 0.00 0.01 0.00 0.00 0.01 0.01 0.01 0.01 0.01 0.01 0.01 0.02 0.02 0.02 0.03 0.03 0.02 0.02 0.02 0.03 0.02 0.02 0.02 0.02 0.02 0.01 0.01 0.00 0.00 0.00 0.00 0.00 0.00 0.01 0.01 0.01 0.03 0.02 0.03 0.04
0.00 0.00 0.00 0.00 0.00 0.00 0.00 0.00 0.01 0.01 0.01 0.01 0.01 0.01 0.01 0.01 0.02 0.03 0.03 0.03 0.02 0.02 0.02 0.02 0.01 0.02 0.02 0.01 0.01 0.01 0.00 0.00 0.00 0.00 0.00 0.00 0.00 0.01 0.01 0.02 0.02 0.01 0.02
0.00 0.01 0.00 0.00 0.00 0.00 0.00 0.01 0.01 0.01 0.02 0.02 0.02 0.01 0.01 0.01 0.01 0.02 0.03 0.03 0.03 0.03 0.03 0.02 0.01 0.02 0.02 0.01 0.01 0.01 0.01 0.00 0.00 0.00 0.00 0.00 0.01 0.01 0.01 0.01 0.01 0.01 0.01
0.01 0.01 0.01 0.00 0.00 0.01 0.01 0.01 0.01 0.01 0.01 0.02 0.01 0.01 0.00 0.00 0.00 0.00 0.02 0.02 0.03 0.04 0.03 0.03 0.02 0.01 0.01 0.01 0.01 0.02 0.02 0.01 0.00 0.00 0.01 0.01 0.01 0.01 0.01 0.01 0.01 0.01 0.02
0.01 0.01 0.01 0.01 0.01 0.01 0.02 0.01 0.01 0.01 0.01 0.01 0.01 0.01 0.01 0.01 0.01 0.01 0.01 0.01 0.02 0.02 0.03 0.04 0.02 0.01 0.01 0.01 0.02 0.03 0.03 0.02 0.01 0.01 0.01 0.01 0.01 0.01 0.01 0.01 0.01 0.01 0.02
0.01 0.01 0.01 0.02 0.02 0.03 0.03 0.02 0.02 0.02 0.03 0.01 0.01 0.01 0.01 0.01 0.02 0.01 0.01 0.01 0.02 0.02 0.02 0.02 0.02 0.02 0.02 0.02 0.02 0.02 0.02 0.01 0.02 0.03 0.02 0.01 0.01 0.01 0.01 0.02 0.02 0.02 0.02
0.01 0.01 0.01 0.02 0.02 0.02 0.02 0.01 0.03 0.02 0.03 0.02 0.02 0.01 0.01 0.01 0.01 0.01 0.01 0.02 0.03 0.03 0.02 0.03 0.02 0.02 0.02 0.03 0.02 0.02 0.02 0.01 0.01 0.02 0.03 0.02 0.01 0.01 0.01 0.02 0.03 0.03 0.03
0.01 0.01 0.01 0.01 0.01 0.01 0.01 0.01 0.01 0.01 0.02 0.02 0.03 0.02 0.01 0.01 0.01 0.01 0.01 0.02 0.03 0.03 0.02 0.02 0.02 0.03 0.03 0.03 0.02 0.02 0.03 0.02 0.02 0.02 0.02 0.03 0.03 0.01 0.01 0.02 0.02 0.03 0.03
MSLP
1012.95 1012.69 1012.61 1012.70 1012.89 1013.09 1013.24 1013.26 1013.13 1012.88 1012.56 1012.24 1012.00 1011.87 1011.87 1011.98 1012.14 1012.30 1012.41 1012.45 1012.44 1012.39 1012.36 1012.39 1012.49 1012.66 1012.88 1013.11 1013.30 1013.44 1013.51 1013.53 1013.53 1013.54 1013.60 1013.72 1013.89 1014.09 1014.29 1014.46 1014.60 1014.69 1014.75
1012.97 1012.76 1012.72 1012.83 1013.03 1013.24 1013.38 1013.40 1013.27 1013.02 1012.70 1012.38 1012.14 1012.02 1012.02 1012.14 1012.30 1012.47 1012.59 1012.63 1012.62 1012.58 1012.55 1012.57 1012.66 1012.82 1013.03 1013.24 1013.41 1013.53 1013.59 1013.61 1013.61 1013.64 1013.71 1013.83 1014.00 1014.20 1014.39 1014.55 1014.66 1014.72 1014.76
1012.95 1012.81 1012.82 1012.96 1013.17 1013.39 1013.54 1013.57 1013.45 1013.21 1012.90 1012.60 1012.36 1012.24 1012.24 1012.33 1012.48 1012.62 1012.72 1012.76 1012.75 1012.71 1012.69 1012.72 1012.82 1012.99 1013.19 1013.38 1013.55 1013.65 1013.71 1013.72 1013.72 1013.75 1013.83 1013.96 1014.12 1014.31 1014.48 1014.61 1014.70 1014.74 1014.76
1012.90 1012.83 1012.89 1013.06 1013.30 1013.53 1013.69 1013.73 1013.63 1013.42 1013.13 1012.85 1012.62 1012.48 1012.46 1012.52 1012.62 1012.73 1012.80 1012.82 1012.80 1012.78 1012.78 1012.84 1012.96 1013.14 1013.35 1013.55 1013.71 1013.81 1013.86 1013.87 1013.87 1013.90 1013.98 1014.10 1014.25 1014.42 1014.56 1014.67 1014.73 1014.75 1014.75
1012.83 1012.82 1012.93 1013.13 1013.38 1013.63 1013.80 1013.86 1013.78 1013.59 1013.34 1013.07 1012.84 1012.69 1012.64 1012.65 1012.71 1012.77 1012.80 1012.80 1012.79 1012.78 1012.82 1012.92 1013.08 1013.29 1013.52 1013.74 1013.90 1014.00 1014.05 1014.06 1014.06 1014.08 1014.15 1014.26 1014.39 1014.53 1014.64 1014.71 1014.75 1014.75 1014.74
1012.76 1012.81 1012.95 1013.17 1013.43 1013.68 1013.85 1013.92 1013.86 1013.70 1013.46 1013.21 1012.99 1012.83 1012.74 1012.72 1012.72 1012.74 1012.74 1012.73 1012.72 1012.74 1012.81 1012.96 1013.17 1013.42 1013.68 1013.92 1014.09 1014.20 1014.25 1014.26 1014.26 1014.28 1014.33 1014.42 1014.52 1014.62 1014.70 1014.73 1014.74 1014.72 1014.70
1012.74 1012.81 1012.96 1013.18 1013.44 1013.68 1013.85 1013.91 1013.86 1013.71 1013.49 1013.25 1013.04 1012.88 1012.77 1012.72 1012.69 1012.67 1012.65 1012.63 1012.63 1012.68 1012.79 1012.97 1013.23 1013.52 1013.81 1014.06 1014.25 1014.37 1014.43 1014.44 1014.44 1014.46 1014.50 1014.56 1014.63 1014.69 1014.72 1014.72 1014.68 1014.64 1014.60
1012.77 1012.84 1012.98 1013.19 1013.43 1013.65 1013.80 1013.85 1013.79 1013.64 1013.44 1013.22 1013.02 1012.86 1012.76 1012.69 1012.65 1012.61 1012.58 1012.55 1012.57 1012.63 1012.77 1012.99 1013.26 1013.58 1013.89 1014.15 1014.36 1014.49 1014.55 1014.58 1014.59 1014.60 1014.63 1014.68 1014.72 1014.73 1014.72 1014.66 1014.58 1014.49 1014.43
1012.86 1012.91 1013.04 1013.23 1013.43 1013.61 1013.73 1013.76 1013.69 1013.54 1013.35 1013.15 1012.97 1012.84 1012.75 1012.69 1012.65 1012.61 1012.58 1012.56 1012.58 1012.65 1012.79 1013.02 1013.30 1013.61 1013.92 1014.19 1014.40 1014.54 1014.62 1014.66 1014.68 1014.70 1014.73 1014.76 1014.77 1014.75 1014.68 1014.57 1014.43 1014.29 1014.18
1013.00 1013.03 1013.14 1013.29 1013.47 1013.61 1013.70 1013.70 1013.61 1013.47 1013.29 1013.11 1012.97 1012.87 1012.80 1012.77 1012.74 1012.72 1012.69 1012.67 1012.68 1012.74 1012.88 1013.09 1013.35 1013.65 1013.95 1014.20 1014.41 1014.55 1014.64 1014.70 1014.73 1014.77 1014.80 1014.82 1014.80 1014.75 1014.63 1014.47 1014.27 1014.06 1013.89
1013.17 1013.19 1013.27 1013.41 1013.55 1013.67 1013.72 1013.70 1013.61 1013.46 1013.30 1013.15 1013.05 1012.98 1012.95 1012.95 1012.94 1012.93 1012.90 1012.88 1012.88 1012.93 1013.04 1013.21 1013.45 1013.71 1013.98 1014.22 1014.41 1014.56 1014.66 1014.73 1014.79 1014.83 1014.87 1014.88 1014.85 1014.76 1014.61 1014.38 1014.12 1013.85 1013.61
1013.36 1013.37 1013.45 1013.57 1013.70 1013.79 1013.82 1013.79 1013.69 1013.56 1013.42 1013.30 1013.23 1013.20 1013.21 1013.23 1013.24 1013.24 1013.21 1013.18 1013.16 1013.18 1013.26 1013.40 1013.60 1013.83 1014.06 1014.28 1014.46 1014.60 1014.71 1014.80 1014.87 1014.93 1014.97 1014.98 1014.94 1014.83 1014.63 1014.36 1014.04 1013.71 1013.41
1013.55 1013.57 1013.66 1013.77 1013.89 1013.97 1013.99 1013.95 1013.87 1013.75 1013.64 1013.55 1013.51 1013.51 1013.54 1013.58 1013.60 1013.59 1013.56 1013.52 1013.48 1013.48 1013.54 1013.65 1013.81 1014.01 1014.21 1014.41 1014.58 1014.72 1014.83 1014.92 1015.00 1015.07 1015.12 1015.13 1015.08 1014.94 1014.72 1014.42 1014.06 1013.68 1013.34
1013.76 1013.80 1013.89 1014.00 1014.11 1014.19 1014.21 1014.18 1014.11 1014.02 1013.93 1013.88 1013.86 1013.88 1013.92 1013.95 1013.97 1013.96 1013.91 1013.86 1013.82 1013.80 1013.84 1013.94 1014.08 1014.26 1014.45 1014.62 1014.78 1014.91 1015.01 1015.10 1015.18 1015.25 1015.30 1015.30 1015.25 1015.10 1014.87 1014.56 1014.18 1013.78 1013.41
1013.99 1014.05 1014.15 1014.26 1014.36 1014.43 1014.46 1014.44 1014.39 1014.33 1014.27 1014.24 1014.24 1014.27 1014.30 1014.33 1014.33 1014.30 1014.24 1014.18 1014.13 1014.12 1014.16 1014.26 1014.40 1014.57 1014.74 1014.90 1015.04 1015.15 1015.24 1015.32 1015.38 1015.44 1015.48 1015.48 1015.42 1015.28 1015.06 1014.75 1014.38 1014.00 1013.63
1014.27 1014.34 1014.43 1014.52 1014.61 1014.67 1014.70 1014.69 1014.67 1014.64 1014.62 1014.61 1014.62 1014.65 1014.67 1014.67 1014.65 1014.60 1014.54 1014.47 1014.43 1014.44 1014.49 1014.60 1014.74 1014.91 1015.08 1015.22 1015.33 1015.42 1015.48 1015.52 1015.57 1015.60 1015.63 1015.62 1015.56 1015.44 1015.23 1014.95 1014.62 1014.27 1013.95
1014.58 1014.66 1014.73 1014.80 1014.86 1014.90 1014.92 1014.93 1014.93 1014.93 1014.94 1014.96 1014.98 1014.99 1015.00 1014.98 1014.94 1014.87 1014.80 1014.75 1014.72 1014.75 1014.82 1014.95 1015.10 1015.26 1015.41 1015.53 1015.61 1015.65 1015.67 1015.68 1015.68 1015.69 1015.69 1015.68 1015.63 1015.53 1015.36 1015.13 1014.85 1014.56 1014.29
1014.93 1015.00 1015.04 1015.07 1015.10 1015.11 1015.13 1015.15 1015.17 1015.20 1015.24 1015.27 1015.30 1015.32 1015.31 1015.27 1015.21 1015.14 1015.07 1015.03 1015.02 1015.07 1015.16 1015.30 1015.45 1015.60 1015.72 1015.80 1015.83 1015.82 1015.79 1015.75 1015.71 1015.68 1015.67 1015.65 1015.61 1015.54 1015.41 1015.24 1015.03 1014.81 1014.61
1015.29 1015.34 1015.35 1015.35 1015.33 1015.32 1015.32 1015.34 1015.39 1015.44 1015.50 1015.56 1015.61 1015.62 1015.61 1015.56 1015.49 1015.42 1015.36 1015.33 1015.34 1015.41 1015.51 1015.64 1015.78 1015.90 1015.98 1016.01 1015.98 1015.92 1015.83 1015.74 1015.66 1015.61 1015.57 1015.55 1015.53 1015.48 1015.41 1015.29 1015.15 1015.00 1014.87
1015.62 1015.66 1015.65 1015.61 1015.56 1015.52 1015.51 1015.54 1015.59 1015.67 1015.76 1015.83 1015.89 1015.91 1015.90 1015.85 1015.79 1015.72 1015.67 1015.66 1015.68 1015.75 1015.86 1015.97 1016.08 1016.16 1016.18 1016.15 1016.07 1015.95 1015.81 1015.68 1015.57 1015.50 1015.46 1015.44 1015.43 1015.41 1015.37 1015.31 1015.23 1015.14 1015.06
1015.90 1015.94 1015.92 1015.85 1015.78 1015.73 1015.71 1015.74 1015.80 1015.89 1015.99 1016.08 1016.15 1016.18 1016.17 1016.13 1016.08 1016.03 1015.99 1015.99 1016.02 1016.09 1016.18 1016.26 1016.33 1016.35 1016.32 1016.24 1016.11 1015.94 1015.77 1015.62 1015.50 1015.41 1015.37 1015.36 1015.37 1015.38 1015.37 1015.35 1015.32 1015.28 1015.24
1016.08 1016.14 1016.13 1016.07 1016.00 1015.94 1015.93 1015.95 1016.02 1016.11 1016.22 1016.31 1016.38 1016.42 1016.42 1016.39 1016.35 1016.31 1016.29 1016.29 1016.33 1016.38 1016.44 1016.49 1016.51 1016.48 1016.41 1016.28 1016.12 1015.94 1015.76 1015.60 1015.49 1015.41 1015.38 1015.38 1015.40 1015.43 1015.44 1015.45 1015.45 1015.45 1015.44
1016.17 1016.27 1016.29 1016.25 1016.20 1016.16 1016.15 1016.18 1016.24 1016.33 1016.43 1016.52 1016.58 1016.61 1016.62 1016.60 1016.57 1016.54 1016.53 1016.54 1016.56 1016.59 1016.62 1016.63 1016.61 1016.55 1016.44 1016.30 1016.13 1015.96 1015.80 1015.67 1015.57 1015.52 1015.51 1015.52 1015.55 1015.59 1015.62 1015.65 1015.67 1015.69 1015.71
1016.18 1016.32 1016.39 1016.40 1016.38 1016.37 1016.38 1016.41 1016.47 1016.55 1016.63 1016.70 1016.74 1016.76 1016.76 1016.74 1016.72 1016.69 1016.68 1016.69 1016.70 1016.70 1016.70 1016.68 1016.63 1016.54 1016.43 1016.29 1016.15 1016.01 1015.90 1015.81 1015.75 1015.73 1015.74 1015.76 1015.80 1015.84 1015.88 1015.93 1015.97 1016.01 1016.06
1016.14 1016.32 1016.44 1016.51 1016.54 1016.56 1016.59 1016.63 1016.69 1016.75 1016.80 1016.85 1016.87 1016.87 1016.85 1016.83 1016.80 1016.78 1016.76 1016.75 1016.74 1016.72 1016.69 1016.64 1016.57 1016.48 1016.37 1016.27 1016.17 1016.09 1016.03 1016.00 1015.99 1016.00 1016.03 1016.06 1016.10 1016.14 1016.19 1016.25 1016.31 1016.39 1016.46
1016.07 1016.29 1016.45 1016.57 1016.65 1016.72 1016.77 1016.82 1016.87 1016.92 1016.95 1016.97 1016.96 1016.95 1016.91 1016.88 1016.84 1016.80 1016.77 1016.74 1016.71 1016.66 1016.60 1016.53 1016.45 1016.37 1016.30 1016.24 1016.20 1016.18 1016.19 1016.21 1016.25 1016.28 1016.32 1016.35 1016.38 1016.42 1016.48 1016.55 1016.65 1016.76 1016.87
Thickness
5763 5765 5762 5763 5763 5764 5765 5765 5765 5765 5765 5765 5766 5766 5766 5767 5767 5768 5768 5769 5769 5770 5770 5770 5770 5770 5770 5770 5769 5770 5770 5770 5770 5771 5771 5771 5771 5771 5771 5772 5773 5774 5772
5763 5763 5760 5761 5761 5762 5762 5762 5762 5762 5762 5763 5763 5763 5764 5764 5764 5764 5765 5766 5766 5767 5767 5767 5767 5767 5767 5767 5767 5767 5767 5768 5768 5768 5768 5768 5768 5768 5769 5769 5770 5771 5769
5762 5761 5760 5758 5759 5759 5759 5759 5759 5759 5759 5760 5760 5760 5761 5761 5761 5761 5762 5763 5763 5764 5764 5764 5764 5764 5764 5764 5764 5764 5764 5764 5764 5765 5766 5768 5767 5766 5766 5766 5766 5766 5766
5760 5759 5758 5755 5755 5755 5756 5756 5756 5756 5756 5756 5757 5757 5757 5758 5758 5759 5759 5760 5760 5760 5761 5761 5761 5761 5760 5760 5760 5762 5761 5760 5761 5762 5765 5766 5766 5763 5763 5763 5763 5763 5763
5757 5756 5754 5752 5752 5752 5753 5753 5753 5753 5753 5753 5753 5754 5754 5755 5755 5756 5756 5756 5756 5756 5757 5757 5757 5757 5757 5756 5757 5759 5758 5757 5759 5760 5762 5762 5761 5760 5759 5759 5759 5760 5760
5755 5754 5751 5749 5749 5750 5750 5750 5750 5750 5750 5750 5750 5750 5750 5751 5751 5752 5752 5752 5752 5752 5752 5753 5753 5753 5753 5753 5753 5754 5754 5754 5756 5758 5759 5759 5758 5756 5755 5755 5756 5756 5757
5753 5752 5750 5746 5746 5747 5747 5747 5747 5747 5747 5747 5747 5747 5747 5747 5748 5748 5748 5748 5748 5748 5748 5748 5749 5749 5749 5749 5749 5749 5750 5751 5754 5754 5754 5754 5754 5752 5752 5752 5752 5752 5752
5751 5751 5748 5744 5744 5744 5744 5744 5744 5744 5743 5743 5743 5743 5743 5743 5743 5744 5744 5744 5744 5744 5744 5744 5744 5744 5744 5744 5745 5745 5745 5747 5750 5751 5750 5750 5749 5748 5748 5748 5748 5748 5748
5750 5749 5748 5747 5745 5742 5741 5741 5741 5741 5740 5740 5739 5739 5739 5739 5739 5740 5740 5740 5740 5740 5740 5740 5740 5740 5740 5741 5740 5740 5741 5743 5746 5747 5747 5746 5744 5744 5744 5744 5744 5744 5744
5749 5748 5747 5746 5745 5744 5742 5738 5737 5737 5737 5736 5736 5735 5736 5736 5737 5738 5738 5736 5736 5736 5736 5736 5736 5736 5736 5736 5736 5737 5738 5740 5742 5742 5742 5740 5739 5739 5739 5740 5740 5740 5739
5746 5747 5747 5745 5744 5743 5741 5737 5736 5735 5734 5734 5734 5733 5735 5737 5738 5737 5734 5733 5732 5732 5732 5731 5732 5732 5732 5732 5732 5733 5736 5738 5738 5738 5736 5734 5734 5734 5735 5735 5735 5735 5735
5744 5745 5746 5745 5743 5742 5739 5738 5737 5736 5734 5734 5734 5734 5734 5734 5733 5733 5729 5729 5728 5728 5728 5727 5728 5729 5731 5732 5731 5731 5734 5735 5734 5733 5731 5729 5730 5730 5731 5731 5731 5731 5731
5746 5744 5745 5744 5742 5740 5738 5737 5735 5734 5733 5733 5732 5732 5731 5731 5731 5731 5730 5729 5727 5727 5727 5726 5728 5728 5729 5727 5728 5729 5729 5730 5730 5728 5726 5724 5724 5725 5726 5726 5726 5727 5727
5744 5743 5743 5743 5741 5739 5737 5735 5734 5733 5732 5731 5730 5730 5730 5729 5729 5728 5727 5726 5725 5724 5723 5725 5724 5725 5725 5725 5725 5725 5725 5724 5723 5722 5720 5719 5719 5720 5721 5721 5721 5722 5722
5743 5743 5742 5741 5740 5738 5735 5733 5733 5731 5730 5729 5726 5728 5727 5727 5727 5726 5725 5722 5722 5721 5721 5720 5721 5720 5721 5721 5720 5720 5720 5719 5719 5717 5715 5714 5714 5714 5715 5715 5716 5716 5717
5743 5742 5741 5739 5738 5736 5734 5733 5732 5729 5727 5727 5725 5724 5724 5724 5723 5722 5721 5719 5718 5717 5716 5716 5716 5715 5715 5715 5714 5714 5714 5714 5713 5713 5712 5710 5709 5709 5709 5710 5711 5711 5712
5744 5743 5740 5738 5737 5735 5734 5731 5729 5727 5726 5725 5723 5723 5721 5720 5720 5719 5718 5716 5715 5713 5713 5712 5711 5711 5710 5709 5709 5709 5709 5708 5709 5709 5708 5707 5706 5705 5704 5705 5706 5706 5707
5744 5742 5739 5736 5735 5733 5731 5729 5728 5726 5723 5722 5721 5719 5718 5717 5716 5714 5713 5712 5711 5710 5709 5708 5707 5707 5706 5705 5705 5704 5704 5703 5704 5704 5704 5703 5703 5702 5701 5700 5701 5702 5702
5743 5741 5738 5736 5733 5731 5729 5727 5725 5724 5721 5720 5718 5717 5715 5714 5712 5711 5708 5708 5707 5707 5706 5705 5704 5703 5701 5700 5700 5699 5700 5699 5699 5699 5700 5699 5698 5698 5698 5696 5696 5697 5698
5742 5740 5738 5735 5732 5730 5727 5726 5722 5720 5719 5716 5714 5713 5711 5710 5708 5707 5705 5705 5704 5702 5701 5700 5697 5697 5697 5697 5698 5696 5696 5696 5696 5695 5695 5695 5695 5695 5695 5694 5694 5694 5693
5739 5737 5736 5733 5731 5727 5724 5721 5718 5716 5715 5713 5710 5709 5706 5705 5704 5703 5702 5702 5699 5698 5697 5697 5695 5693 5693 5694 5693 5692 5692 5693 5693 5692 5692 5692 5691 5690 5690 5690 5691 5691 5691
5737 5735 5734 5732 5729 5726 5722 5721 5717 5714 5712 5710 5706 5704 5703 5702 5701 5700 5699 5698 5696 5693 5693 5692 5690 5690 5690 5691 5690 5688 5686 5686 5687 5688 5688 5687 5688 5687 5687 5687 5687 5686 5687
5734 5733 5731 5730 5727 5723 5719 5717 5713 5710 5708 5705 5703 5701 5700 5698 5697 5695 5695 5694 5692 5691 5690 5688 5688 5686 5686 5687 5689 5686 5683 5681 5682 5684 5684 5684 5684 5683 5683 5683 5683 5683 5683
5733 5732 5730 5728 5725 5721 5717 5713 5710 5705 5702 5702 5701 5699 5697 5695 5693 5692 5691 5690 5689 5688 5686 5686 5685 5684 5683 5683 5683 5683 5684 5683 5678 5677 5679 5681 5680 5679 5680 5679 5679 5679 5679
5730 5728 5726 5724 5721 5718 5714 5710 5707 5704 5702 5701 5698 5696 5694 5692 5690 5689 5687 5687 5686 5685 5684 5682 5681 5681 5680 5680 5679 5679 5678 5677 5679 5676 5673 5674 5676 5676 5676 5675 5675 5675 5675
5726 5723 5721 5719 5717 5714 5711 5709 5705 5701 5699 5696 5694 5692 5690 5689 5687 5686 5684 5684 5683 5682 5680 5678 5678 5676 5676 5676 5676 5677 5675 5674 5674 5674 5671 5670 5670 5672 5672 5672 5671 5671 5670